When you browse on this site, cookies collect data to enhance your experience and personalize the content and advertising you see.
Visit our Privacy Policy to learn more. By continuing to use the site, you agree to this use of cookies and data.
  • In Czech Republic
  • List of Countries
  • For 7 days
  • Water Temperature
  • Satellite Maps
  • Weather Map
  • Weather Widgets
  • user-avatar
    Login

    Hourly Weather Barra

    Today, 17 November, Saturday

    Time Temperature Precipitation Wind Pressure Humidity
    00:00 +23°C° 0 mm 2 mps 749 mmHg 82%
    01:00 +23°C° 0 mm 2 mps 748 mmHg 85%
    02:00 +21°C° 0 mm 2 mps 748 mmHg 87%
    03:00 +21°C° 0 mm 2 mps 748 mmHg 89%
    04:00 +22°C° 0 mm 1 mps 748 mmHg 91%
    05:00 +23°C° 0 mm 1 mps 748 mmHg 86%
    06:00 +24°C° 0 mm 1 mps 748 mmHg 81%
    07:00 +25°C° 0 mm 1 mps 749 mmHg 76%
    08:00 +28°C° 0 mm 2 mps 749 mmHg 65%
    09:00 +30°C° 0 mm 2 mps 749 mmHg 54%
    10:00 +33°C° 0 mm 3 mps 749 mmHg 42%
    11:00 +34°C° 0 mm 3 mps 748 mmHg 39%
    12:00 +35°C° 0 mm 3 mps 748 mmHg 35%
    13:00 +35°C° 0 mm 4 mps 748 mmHg 31%
    14:00 +35°C° 0 mm 4 mps 747 mmHg 33%
    15:00 +34°C° 0 mm 4 mps 747 mmHg 35%
    16:00 +33°C° 0 mm 3 mps 747 mmHg 37%
    17:00 +30°C° 0 mm 3 mps 747 mmHg 46%
    18:00 +28°C° 0 mm 2 mps 747 mmHg 56%
    19:00 +25°C° 0 mm 2 mps 747 mmHg 66%
    20:00 +25°C° 0 mm 2 mps 748 mmHg 71%
    21:00 +24°C° 0 mm 1 mps 748 mmHg 77%
    22:00 +23°C° 0 mm 1 mps 748 mmHg 82%
    23:00 +23°C° 0 mm 1 mps 748 mmHg 84%

    Tomorrow, 18 November, Sunday

    Time Temperature Precipitation Wind Pressure Humidity
    00:00 +22°C° 0 mm 1 mps 748 mmHg 86%
    01:00 +22°C° 0 mm 1 mps 747 mmHg 88%
    02:00 +22°C° 0 mm 1 mps 747 mmHg 88%
    03:00 +21°C° 0 mm 1 mps 747 mmHg 89%
    04:00 +21°C° 0 mm 1 mps 747 mmHg 90%
    05:00 +22°C° 0 mm 1 mps 747 mmHg 85%
    06:00 +24°C° 0 mm 1 mps 748 mmHg 80%
    07:00 +25°C° 0 mm 1 mps 748 mmHg 75%
    08:00 +27°C° 0 mm 2 mps 748 mmHg 65%
    09:00 +29°C° 0 mm 3 mps 748 mmHg 56%
    10:00 +31°C° 0 mm 3 mps 748 mmHg 47%
    11:00 +33°C° 0 mm 4 mps 748 mmHg 45%
    12:00 +34°C° 0 mm 4 mps 747 mmHg 43%
    13:00 +34°C° 0 mm 4 mps 747 mmHg 41%
    14:00 +34°C° 0 mm 4 mps 747 mmHg 43%
    15:00 +33°C° 0 mm 4 mps 746 mmHg 45%
    16:00 +32°C° 0 mm 4 mps 746 mmHg 48%
    17:00 +29°C° 0 mm 3 mps 747 mmHg 57%
    18:00 +27°C° 0 mm 3 mps 747 mmHg 66%
    19:00 +26°C° 0 mm 2 mps 748 mmHg 76%
    20:00 +25°C° 0 mm 2 mps 748 mmHg 80%
    21:00 +24°C° 0 mm 2 mps 749 mmHg 84%
    22:00 +24°C° 0 mm 2 mps 749 mmHg 89%
    23:00 +24°C° 0 mm 2 mps 749 mmHg 89%

    Day after tomorrow, 19 November, Monday

    Time Temperature Precipitation Wind Pressure Humidity
    00:00 +23°C° 0 mm 2 mps 748 mmHg 90%
    01:00 +23°C° 0 mm 2 mps 748 mmHg 90%
    02:00 +23°C° 0 mm 2 mps 747 mmHg 90%
    03:00 +23°C° 0 mm 2 mps 747 mmHg 89%
    04:00 +24°C° 0 mm 2 mps 747 mmHg 88%
    05:00 +24°C° 0 mm 3 mps 747 mmHg 83%
    06:00 +25°C° 0 mm 3 mps 748 mmHg 79%
    07:00 +26°C° 0 mm 3 mps 748 mmHg 75%
    08:00 +28°C° 0 mm 3 mps 748 mmHg 67%
    09:00 +29°C° 0 mm 3 mps 749 mmHg 60%
    10:00 +32°C° 0 mm 4 mps 749 mmHg 53%
    11:00 +33°C° 0 mm 4 mps 748 mmHg 50%
    12:00 +33°C° 0 mm 4 mps 748 mmHg 47%
    13:00 +34°C° 0 mm 4 mps 748 mmHg 44%
    14:00 +34°C° 0 mm 4 mps 747 mmHg 45%
    15:00 +33°C° 0 mm 3 mps 747 mmHg 46%
    16:00 +33°C° 0 mm 3 mps 746 mmHg 48%
    17:00 +30°C° 0 mm 3 mps 747 mmHg 56%
    18:00 +28°C° 0 mm 3 mps 747 mmHg 65%
    19:00 +26°C° 0 mm 3 mps 748 mmHg 74%
    20:00 +25°C° 0 mm 3 mps 748 mmHg 78%
    21:00 +25°C° 0 mm 3 mps 749 mmHg 83%
    22:00 +24°C° 0 mm 3 mps 749 mmHg 87%
    23:00 +24°C° 0 mm 3 mps 749 mmHg 88%

    20 November, Tuesday

    Time Temperature Precipitation Wind Pressure Humidity
    00:00 +24°C° 0 mm 2 mps 749 mmHg 88%
    01:00 +24°C° 0 mm 2 mps 748 mmHg 89%
    02:00 +24°C° 0.1 mm 2 mps 748 mmHg 89%
    03:00 +24°C° 0.1 mm 2 mps 748 mmHg 89%
    04:00 +24°C° 0.1 mm 2 mps 748 mmHg 89%
    05:00 +25°C° 0.1 mm 3 mps 748 mmHg 86%
    06:00 +25°C° 0.1 mm 3 mps 749 mmHg 83%
    07:00 +26°C° 0.1 mm 3 mps 749 mmHg 80%
    08:00 +28°C° 0 mm 3 mps 749 mmHg 72%
    09:00 +29°C° 0 mm 4 mps 749 mmHg 64%
    10:00 +32°C° 0 mm 4 mps 749 mmHg 56%
    11:00 +32°C° 0 mm 4 mps 749 mmHg 53%
    12:00 +33°C° 0 mm 4 mps 748 mmHg 50%
    13:00 +34°C° 0 mm 4 mps 747 mmHg 47%
    14:00 +33°C° 0 mm 4 mps 747 mmHg 48%
    15:00 +33°C° 0 mm 4 mps 746 mmHg 50%
    16:00 +32°C° 0 mm 4 mps 746 mmHg 51%
    17:00 +29°C° 0 mm 3 mps 746 mmHg 59%
    18:00 +28°C° 0 mm 3 mps 747 mmHg 68%
    19:00 +26°C° 0 mm 2 mps 748 mmHg 76%
    20:00 +25°C° 0 mm 2 mps 748 mmHg 80%
    21:00 +25°C° 0 mm 2 mps 748 mmHg 84%
    22:00 +24°C° 0 mm 2 mps 749 mmHg 88%
    23:00 +24°C° 0 mm 2 mps 748 mmHg 89%

    21 November, Wednesday

    Time Temperature Precipitation Wind Pressure Humidity
    00:00 +24°C° 0 mm 2 mps 747 mmHg 91%
    01:00 +24°C° 0 mm 2 mps 747 mmHg 92%
    02:00 +24°C° 0.1 mm 2 mps 747 mmHg 93%
    03:00 +23°C° 0.1 mm 2 mps 746 mmHg 93%
    04:00 +23°C° 0.1 mm 2 mps 746 mmHg 94%
    05:00 +24°C° 0.1 mm 2 mps 747 mmHg 90%
    06:00 +25°C° 0.1 mm 2 mps 747 mmHg 86%
    07:00 +26°C° 0.1 mm 2 mps 748 mmHg 81%
    08:00 +28°C° 0.1 mm 2 mps 748 mmHg 73%
    09:00 +30°C° 0.1 mm 2 mps 748 mmHg 65%
    10:00 +32°C° 0.1 mm 2 mps 748 mmHg 56%
    11:00 +34°C° 0 mm 3 mps 747 mmHg 53%
    12:00 +35°C° 0 mm 3 mps 747 mmHg 49%
    13:00 +36°C° 0 mm 4 mps 746 mmHg 46%
    14:00 +35°C° 0 mm 4 mps 746 mmHg 49%
    15:00 +35°C° 0 mm 4 mps 745 mmHg 52%
    16:00 +34°C° 0 mm 4 mps 745 mmHg 54%
    17:00 +32°C° 0 mm 4 mps 745 mmHg 63%
    18:00 +29°C° 0 mm 4 mps 745 mmHg 72%
    19:00 +27°C° 0 mm 4 mps 746 mmHg 81%
    20:00 +27°C° 0 mm 4 mps 746 mmHg 84%
    21:00 +26°C° 0 mm 3 mps 746 mmHg 87%
    22:00 +26°C° 0 mm 3 mps 747 mmHg 90%
    23:00 +25°C° 0 mm 3 mps 746 mmHg 91%

    22 November, Thursday

    Time Temperature Precipitation Wind Pressure Humidity
    00:00 +25°C° 0 mm 3 mps 746 mmHg 92%
    01:00 +24°C° 0 mm 3 mps 746 mmHg 94%
    02:00 +24°C° 0 mm 3 mps 745 mmHg 94%
    03:00 +24°C° 0 mm 3 mps 745 mmHg 93%
    04:00 +24°C° 0 mm 3 mps 745 mmHg 93%
    05:00 +25°C° 0 mm 3 mps 746 mmHg 87%
    06:00 +26°C° 0 mm 2 mps 747 mmHg 81%
    07:00 +27°C° 0 mm 2 mps 747 mmHg 75%
    08:00 +30°C° 0 mm 2 mps 747 mmHg 63%
    09:00 +34°C° 0 mm 3 mps 747 mmHg 51%
    10:00 +37°C° 0 mm 3 mps 747 mmHg 40%
    11:00 +38°C° 0 mm 3 mps 746 mmHg 38%
    12:00 +40°C° 0 mm 4 mps 746 mmHg 36%
    13:00 +41°C° 0 mm 4 mps 745 mmHg 34%
    14:00 +39°C° 0 mm 5 mps 744 mmHg 42%
    15:00 +36°C° 0 mm 5 mps 744 mmHg 50%
    16:00 +34°C° 0 mm 5 mps 744 mmHg 57%
    17:00 +33°C° 0.1 mm 4 mps 744 mmHg 65%
    18:00 +30°C° 0.1 mm 4 mps 745 mmHg 72%
    19:00 +29°C° 0.1 mm 3 mps 745 mmHg 80%
    20:00 +29°C° 0.2 mm 3 mps 746 mmHg 83%
    21:00 +28°C° 0.2 mm 3 mps 746 mmHg 86%
    22:00 +28°C° 0.2 mm 3 mps 746 mmHg 89%
    23:00 +27°C° 1.1 mm 3 mps 746 mmHg 88%
    Show more